Wetterdaten: Woche 16.01.06 - 22.01.06 (KW3)
Datum Zeit Temperatur Luftfeuchte Luftdruck Niederschlag Windrichtung Wind
16.01.2006 00:00 -12,7 C 83 % 1023 hPa 0,0 l/m N 0,2 km/h (0 Bft)
16.01.2006 01:00 -13,1 C 83 % 1022 hPa 0,0 l/m N 0,0 km/h (0 Bft)
16.01.2006 02:00 -14,0 C 83 % 1023 hPa 0,0 l/m N 0,0 km/h (0 Bft)
16.01.2006 03:00 -14,7 C 83 % 1023 hPa 0,0 l/m N 0,0 km/h (0 Bft)
16.01.2006 04:00 -15,2 C 83 % 1022 hPa 0,0 l/m N 0,0 km/h (0 Bft)
16.01.2006 05:00 -14,3 C 83 % 1022 hPa 0,0 l/m N 0,0 km/h (0 Bft)
16.01.2006 06:00 -12,9 C 83 % 1022 hPa 0,0 l/m N 0,0 km/h (0 Bft)
16.01.2006 07:00 -11,5 C 83 % 1022 hPa 0,0 l/m N 0,0 km/h (0 Bft)
16.01.2006 08:00 -10,6 C 83 % 1022 hPa 0,0 l/m N 0,0 km/h (0 Bft)
16.01.2006 09:00 -9,7 C 94 % 1022 hPa 0,0 l/m N 0,0 km/h (0 Bft)
16.01.2006 10:00 -8,7 C 94 % 1022 hPa 0,0 l/m N 0,0 km/h (0 Bft)
16.01.2006 11:00 -7,4 C 94 % 1022 hPa 0,0 l/m N 0,0 km/h (0 Bft)
16.01.2006 12:00 -5,5 C 93 % 1021 hPa 0,0 l/m N 0,4 km/h (0 Bft)
16.01.2006 13:00 -2,6 C 79 % 1021 hPa 0,0 l/m N 0,8 km/h (0 Bft)
16.01.2006 14:00 -1,1 C 60 % 1020 hPa 0,0 l/m S 3,0 km/h (1 Bft)
16.01.2006 15:00 -1,8 C 62 % 1020 hPa 0,0 l/m S 1,4 km/h (1 Bft)
16.01.2006 16:00 -3,4 C 69 % 1020 hPa 0,0 l/m N 0,0 km/h (0 Bft)
16.01.2006 17:00 -5,6 C 74 % 1020 hPa 0,0 l/m S-SO 0,8 km/h (0 Bft)
16.01.2006 18:00 -7,5 C 83 % 1020 hPa 0,0 l/m S-SO 5,9 km/h (2 Bft)
16.01.2006 19:00 -8,1 C 91 % 1020 hPa 0,0 l/m S-SO 5,5 km/h (1 Bft)
16.01.2006 20:00 -7,6 C 93 % 1019 hPa 0,0 l/m S-SO 4,0 km/h (1 Bft)
16.01.2006 21:00 -7,3 C 94 % 1019 hPa 0,0 l/m N 0,2 km/h (0 Bft)
16.01.2006 22:00 -7,2 C 94 % 1019 hPa 0,0 l/m N 0,1 km/h (0 Bft)
16.01.2006 23:00 -7,0 C 94 % 1019 hPa 0,0 l/m N 0,2 km/h (0 Bft)
17.01.2006 00:00 -6,5 C 94 % 1018 hPa 0,0 l/m S-SO 1,8 km/h (1 Bft)
17.01.2006 01:00 -6,0 C 95 % 1018 hPa 0,0 l/m SO 5,6 km/h (1 Bft)
17.01.2006 02:00 -5,4 C 96 % 1018 hPa 0,0 l/m SO 6,3 km/h (2 Bft)
17.01.2006 03:00 -5,0 C 98 % 1017 hPa 0,0 l/m O-SO 8,0 km/h (2 Bft)
17.01.2006 04:00 -4,5 C 99 % 1017 hPa 0,0 l/m O-SO 3,9 km/h (1 Bft)
17.01.2006 05:00 -4,0 C 100 % 1016 hPa 0,0 l/m N 0,0 km/h (0 Bft)
17.01.2006 06:00 -3,4 C 100 % 1016 hPa 0,0 l/m N 0,0 km/h (0 Bft)
17.01.2006 07:00 -2,5 C 100 % 1015 hPa 0,0 l/m S 3,4 km/h (1 Bft)
17.01.2006 08:00 -2,0 C 100 % 1015 hPa 0,0 l/m S 9,0 km/h (2 Bft)
17.01.2006 09:00 -0,7 C 100 % 1014 hPa 0,0 l/m S 9,4 km/h (2 Bft)
17.01.2006 10:00 -0,2 C 100 % 1014 hPa 0,0 l/m S 11,2 km/h (2 Bft)
17.01.2006 11:00 0,3 C 100 % 1014 hPa 0,0 l/m S 10,9 km/h (2 Bft)
17.01.2006 12:00 0,6 C 100 % 1013 hPa 0,0 l/m S-SO 11,2 km/h (2 Bft)
17.01.2006 13:00 1,0 C 100 % 1012 hPa 0,0 l/m S 14,7 km/h (3 Bft)
17.01.2006 14:00 1,4 C 100 % 1011 hPa 0,0 l/m S 19,2 km/h (3 Bft)
17.01.2006 15:00 2,4 C 97 % 1010 hPa 0,0 l/m S 24,0 km/h (4 Bft)
17.01.2006 16:00 2,9 C 88 % 1009 hPa 0,0 l/m S-SW 26,6 km/h (4 Bft)
17.01.2006 17:00 2,7 C 89 % 1008 hPa 0,0 l/m S 26,2 km/h (4 Bft)
17.01.2006 18:00 2,6 C 91 % 1007 hPa 0,0 l/m S 22,7 km/h (4 Bft)
17.01.2006 19:00 2,2 C 94 % 1007 hPa 3,0 l/m S 22,2 km/h (4 Bft)
17.01.2006 20:00 1,6 C 97 % 1007 hPa 2,0 l/m S 19,4 km/h (3 Bft)
17.01.2006 21:00 1,0 C 100 % 1006 hPa 1,0 l/m S 18,5 km/h (3 Bft)
17.01.2006 22:00 1,8 C 100 % 1006 hPa 1,0 l/m S 22,3 km/h (4 Bft)
17.01.2006 23:00 1,7 C 99 % 1006 hPa 1,0 l/m S-SW 21,2 km/h (4 Bft)
18.01.2006 00:00 1,7 C 100 % 1006 hPa 1,0 l/m S 20,2 km/h (4 Bft)
18.01.2006 01:00 2,0 C 99 % 1006 hPa 0,0 l/m S 20,6 km/h (4 Bft)
18.01.2006 02:00 2,1 C 100 % 1006 hPa 1,0 l/m S-SW 18,8 km/h (3 Bft)
18.01.2006 03:00 2,3 C 100 % 1007 hPa 0,0 l/m S 15,8 km/h (3 Bft)
18.01.2006 04:00 2,4 C 100 % 1007 hPa 0,0 l/m S-SW 14,1 km/h (3 Bft)
18.01.2006 05:00 2,6 C 100 % 1007 hPa 1,0 l/m S-SW 15,6 km/h (3 Bft)
18.01.2006 06:00 2,7 C 99 % 1008 hPa 0,0 l/m SW 13,5 km/h (3 Bft)
18.01.2006 07:00 2,1 C 97 % 1009 hPa 1,0 l/m SW 14,4 km/h (3 Bft)
18.01.2006 08:00 2,2 C 96 % 1009 hPa 0,0 l/m S-SW 14,4 km/h (3 Bft)
18.01.2006 09:00 2,2 C 91 % 1010 hPa 0,0 l/m W-SW 17,0 km/h (3 Bft)
18.01.2006 10:00 2,1 C 90 % 1011 hPa 0,0 l/m SW 13,7 km/h (3 Bft)
18.01.2006 11:00 2,1 C 91 % 1011 hPa 0,0 l/m S-SW 13,8 km/h (3 Bft)
18.01.2006 12:00 2,0 C 95 % 1011 hPa 1,0 l/m W-SW 12,5 km/h (3 Bft)
18.01.2006 13:00 2,0 C 97 % 1011 hPa 0,0 l/m SW 14,7 km/h (3 Bft)
18.01.2006 14:00 1,9 C 96 % 1012 hPa 0,0 l/m SW 14,3 km/h (3 Bft)
18.01.2006 15:00 1,8 C 97 % 1012 hPa 0,0 l/m SW 6,7 km/h (2 Bft)
18.01.2006 16:00 1,8 C 98 % 1013 hPa 0,0 l/m S-SW 9,5 km/h (2 Bft)
18.01.2006 17:00 1,8 C 98 % 1013 hPa 0,0 l/m SW 11,8 km/h (2 Bft)
18.01.2006 18:00 1,5 C 98 % 1014 hPa 1,0 l/m NW 11,3 km/h (2 Bft)
18.01.2006 19:00 0,8 C 98 % 1015 hPa 0,0 l/m W-SW 5,5 km/h (1 Bft)
18.01.2006 20:00 0,9 C 99 % 1016 hPa 0,0 l/m W-SW 8,3 km/h (2 Bft)
18.01.2006 21:00 0,9 C 100 % 1016 hPa 0,0 l/m W-SW 2,5 km/h (1 Bft)
18.01.2006 22:00 0,3 C 99 % 1017 hPa 0,0 l/m N 0,0 km/h (0 Bft)
18.01.2006 23:00 0,1 C 100 % 1018 hPa 0,0 l/m N 0,0 km/h (0 Bft)
19.01.2006 00:00 -0,3 C 99 % 1019 hPa 0,0 l/m N 0,0 km/h (0 Bft)
19.01.2006 01:00 -0,6 C 100 % 1019 hPa 0,0 l/m N 0,0 km/h (0 Bft)
19.01.2006 02:00 -0,8 C 100 % 1020 hPa 0,0 l/m N 0,0 km/h (0 Bft)
19.01.2006 03:00 -0,5 C 100 % 1021 hPa 0,0 l/m N 0,0 km/h (0 Bft)
19.01.2006 04:00 -0,1 C 100 % 1021 hPa 0,0 l/m N 0,0 km/h (0 Bft)
19.01.2006 05:00 0,1 C 100 % 1021 hPa 0,0 l/m N 0,0 km/h (0 Bft)
19.01.2006 06:00 -0,0 C 100 % 1022 hPa 0,0 l/m N 0,0 km/h (0 Bft)
19.01.2006 07:00 -0,3 C 100 % 1022 hPa 0,0 l/m N 0,0 km/h (0 Bft)
19.01.2006 08:00 -0,8 C 100 % 1023 hPa 0,0 l/m N 0,0 km/h (0 Bft)
19.01.2006 09:00 -1,2 C 100 % 1023 hPa 0,0 l/m N 0,0 km/h (0 Bft)
19.01.2006 10:00 -0,9 C 100 % 1023 hPa 0,0 l/m N 0,0 km/h (0 Bft)
19.01.2006 11:00 -0,5 C 100 % 1023 hPa 0,0 l/m N 0,0 km/h (0 Bft)
19.01.2006 12:00 0,1 C 100 % 1023 hPa 1,0 l/m N 0,0 km/h (0 Bft)
19.01.2006 13:00 0,2 C 100 % 1023 hPa 0,0 l/m N 0,0 km/h (0 Bft)
19.01.2006 14:00 0,2 C 100 % 1023 hPa 1,0 l/m SO 2,7 km/h (1 Bft)
19.01.2006 15:00 0,3 C 100 % 1023 hPa 0,0 l/m SO 5,1 km/h (1 Bft)
19.01.2006 16:00 0,0 C 100 % 1024 hPa 0,0 l/m S-SO 2,4 km/h (1 Bft)
19.01.2006 17:00 -0,7 C 100 % 1024 hPa 0,0 l/m N 0,0 km/h (0 Bft)
19.01.2006 18:00 -0,9 C 100 % 1024 hPa 0,0 l/m N 0,0 km/h (0 Bft)
19.01.2006 19:00 -0,8 C 100 % 1025 hPa 0,0 l/m N 0,0 km/h (0 Bft)
19.01.2006 20:00 -0,9 C 100 % 1025 hPa 0,0 l/m N 0,0 km/h (0 Bft)
19.01.2006 21:00 -0,8 C 100 % 1025 hPa 0,0 l/m N 0,0 km/h (0 Bft)
19.01.2006 22:00 -0,7 C 100 % 1024 hPa 0,0 l/m N 0,0 km/h (0 Bft)
19.01.2006 23:00 -0,6 C 100 % 1024 hPa 0,0 l/m N 0,0 km/h (0 Bft)
20.01.2006 00:00 -0,8 C 100 % 1024 hPa 0,0 l/m N 0,0 km/h (0 Bft)
20.01.2006 01:00 -1,2 C 100 % 1024 hPa 0,0 l/m N 0,0 km/h (0 Bft)
20.01.2006 02:00 -1,3 C 100 % 1024 hPa 0,0 l/m N 0,0 km/h (0 Bft)
20.01.2006 03:00 -1,3 C 100 % 1024 hPa 0,0 l/m N 0,0 km/h (0 Bft)
20.01.2006 04:00 -1,3 C 100 % 1024 hPa 0,0 l/m N 0,0 km/h (0 Bft)
20.01.2006 05:00 -1,2 C 100 % 1023 hPa 0,0 l/m N 0,0 km/h (0 Bft)
20.01.2006 06:00 -1,3 C 100 % 1024 hPa 0,0 l/m N 0,0 km/h (0 Bft)
20.01.2006 07:00 -1,3 C 100 % 1024 hPa 0,0 l/m N 0,0 km/h (0 Bft)
20.01.2006 08:00 -1,3 C 100 % 1024 hPa 0,0 l/m N 0,0 km/h (0 Bft)
20.01.2006 09:00 -0,9 C 100 % 1024 hPa 0,0 l/m N 0,0 km/h (0 Bft)
20.01.2006 10:00 -0,4 C 100 % 1023 hPa 0,0 l/m N 0,0 km/h (0 Bft)
20.01.2006 11:00 0,0 C 100 % 1023 hPa 0,0 l/m N 0,0 km/h (0 Bft)
20.01.2006 12:00 0,6 C 97 % 1022 hPa 0,0 l/m N 0,0 km/h (0 Bft)
20.01.2006 13:00 1,1 C 92 % 1022 hPa 0,0 l/m S 5,8 km/h (2 Bft)
20.01.2006 14:00 1,3 C 90 % 1022 hPa 0,0 l/m S-SO 10,5 km/h (2 Bft)
20.01.2006 15:00 1,3 C 91 % 1021 hPa 0,0 l/m S-SW 10,0 km/h (2 Bft)
20.01.2006 16:00 1,1 C 91 % 1021 hPa 0,0 l/m S 8,3 km/h (2 Bft)
20.01.2006 17:00 0,6 C 95 % 1021 hPa 0,0 l/m O-SO 7,6 km/h (2 Bft)
20.01.2006 18:00 0,4 C 97 % 1021 hPa 0,0 l/m SO 10,1 km/h (2 Bft)
20.01.2006 19:00 0,8 C 99 % 1020 hPa 0,0 l/m S 18,1 km/h (3 Bft)
20.01.2006 20:00 1,2 C 95 % 1020 hPa 0,0 l/m S 18,9 km/h (3 Bft)
20.01.2006 21:00 1,8 C 93 % 1020 hPa 0,0 l/m S 24,7 km/h (4 Bft)
20.01.2006 22:00 2,5 C 93 % 1020 hPa 0,0 l/m S-SW 23,2 km/h (4 Bft)
20.01.2006 23:00 3,3 C 87 % 1020 hPa 0,0 l/m S-SW 22,0 km/h (4 Bft)
21.01.2006 00:00 3,4 C 85 % 1020 hPa 0,0 l/m S 16,9 km/h (3 Bft)
21.01.2006 01:00 3,4 C 86 % 1021 hPa 0,0 l/m SW 16,9 km/h (3 Bft)
21.01.2006 02:00 3,3 C 89 % 1021 hPa 0,0 l/m SW 14,6 km/h (3 Bft)
21.01.2006 03:00 2,7 C 92 % 1022 hPa 0,0 l/m SW 3,3 km/h (1 Bft)
21.01.2006 04:00 2,4 C 94 % 1022 hPa 0,0 l/m SW 3,9 km/h (1 Bft)
21.01.2006 05:00 1,3 C 93 % 1022 hPa 0,0 l/m N 0,0 km/h (0 Bft)
21.01.2006 06:00 0,0 C 94 % 1022 hPa 0,0 l/m SW 0,4 km/h (0 Bft)
21.01.2006 07:00 0,5 C 96 % 1022 hPa 0,0 l/m W-SW 6,1 km/h (2 Bft)
21.01.2006 08:00 0,5 C 92 % 1023 hPa 0,0 l/m SW 11,6 km/h (2 Bft)
21.01.2006 09:00 1,2 C 79 % 1023 hPa 0,0 l/m SW 9,9 km/h (2 Bft)
21.01.2006 10:00 2,4 C 69 % 1023 hPa 0,0 l/m SW 11,7 km/h (2 Bft)
21.01.2006 11:00 3,5 C 62 % 1023 hPa 0,0 l/m S-SW 12,6 km/h (3 Bft)
21.01.2006 12:00 4,7 C 57 % 1022 hPa 0,0 l/m SW 14,1 km/h (3 Bft)
21.01.2006 13:00 5,7 C 53 % 1022 hPa 0,0 l/m W-SW 13,9 km/h (3 Bft)
21.01.2006 14:00 3,9 C 61 % 1022 hPa 0,0 l/m S-SW 10,5 km/h (2 Bft)
21.01.2006 15:00 3,2 C 63 % 1022 hPa 0,0 l/m S-SW 11,3 km/h (2 Bft)
21.01.2006 16:00 2,8 C 62 % 1022 hPa 0,0 l/m S-SW 13,2 km/h (3 Bft)
21.01.2006 17:00 2,5 C 65 % 1022 hPa 0,0 l/m S-SW 12,4 km/h (3 Bft)
21.01.2006 18:00 2,4 C 66 % 1022 hPa 0,0 l/m S-SW 13,4 km/h (3 Bft)
21.01.2006 19:00 2,3 C 69 % 1023 hPa 0,0 l/m S-SW 11,8 km/h (2 Bft)
21.01.2006 20:00 2,2 C 72 % 1023 hPa 0,0 l/m SW 12,6 km/h (3 Bft)
21.01.2006 21:00 1,8 C 80 % 1023 hPa 0,0 l/m SW 11,9 km/h (2 Bft)
21.01.2006 22:00 1,6 C 83 % 1024 hPa 0,0 l/m SW 11,5 km/h (2 Bft)
21.01.2006 23:00 1,3 C 87 % 1024 hPa 0,0 l/m W-SW 8,1 km/h (2 Bft)
22.01.2006 00:00 1,1 C 90 % 1024 hPa 0,0 l/m W-SW 4,9 km/h (1 Bft)
22.01.2006 01:00 1,0 C 92 % 1024 hPa 0,0 l/m SW 0,7 km/h (0 Bft)
22.01.2006 02:00 0,7 C 93 % 1025 hPa 0,0 l/m N 0,0 km/h (0 Bft)
22.01.2006 03:00 0,6 C 95 % 1025 hPa 0,0 l/m W-NW 0,6 km/h (0 Bft)
22.01.2006 04:00 0,7 C 97 % 1026 hPa 0,0 l/m W-NW 3,5 km/h (1 Bft)
22.01.2006 05:00 0,6 C 98 % 1026 hPa 0,0 l/m N 0,0 km/h (0 Bft)
22.01.2006 06:00 0,4 C 98 % 1027 hPa 0,0 l/m NW 0,5 km/h (0 Bft)
22.01.2006 07:00 0,3 C 98 % 1028 hPa 0,0 l/m N 0,0 km/h (0 Bft)
22.01.2006 08:00 -0,1 C 98 % 1028 hPa 0,0 l/m N 0,0 km/h (0 Bft)
22.01.2006 09:00 0,2 C 99 % 1029 hPa 0,0 l/m N 0,0 km/h (0 Bft)
22.01.2006 10:00 0,8 C 99 % 1029 hPa 0,0 l/m W-SW 0,5 km/h (0 Bft)
22.01.2006 11:00 1,4 C 97 % 1030 hPa 0,0 l/m NW 5,1 km/h (1 Bft)
22.01.2006 12:00 1,8 C 84 % 1030 hPa 1,0 l/m NW 9,2 km/h (2 Bft)
22.01.2006 13:00 2,2 C 70 % 1029 hPa 0,0 l/m NW 9,8 km/h (2 Bft)
22.01.2006 14:00 2,1 C 63 % 1029 hPa 0,0 l/m NW 7,5 km/h (2 Bft)
22.01.2006 15:00 1,7 C 69 % 1030 hPa 0,0 l/m N 5,4 km/h (1 Bft)
22.01.2006 16:00 1,2 C 74 % 1030 hPa 0,0 l/m N 10,2 km/h (2 Bft)
22.01.2006 17:00 0,5 C 79 % 1030 hPa 0,0 l/m N 6,7 km/h (2 Bft)
22.01.2006 18:00 0,1 C 78 % 1031 hPa 0,0 l/m N 0,0 km/h (0 Bft)
22.01.2006 19:00 -0,3 C 78 % 1031 hPa 0,0 l/m N 0,0 km/h (0 Bft)
22.01.2006 20:00 -0,7 C 80 % 1031 hPa 0,0 l/m N 0,0 km/h (0 Bft)
22.01.2006 21:00 -1,3 C 82 % 1032 hPa 0,0 l/m N 0,0 km/h (0 Bft)
22.01.2006 22:00 -2,2 C 84 % 1032 hPa 0,0 l/m N 0,0 km/h (0 Bft)
22.01.2006 23:00 -3,3 C 80 % 1032 hPa 0,0 l/m N 0,0 km/h (0 Bft)
Min-Datum _ 16.01.06 21.01.06 17.01.06 - - 16.01.06
_ Min-Zeit 04:27 13:37 19:32 - - 00:00
Minimum _ -15,3 C 51 % 1006 hPa - - 0,0 km/h (0 Bft)
Max-Datum _ 21.01.06 17.01.06 22.01.06 17.01.06 - 17.01.06
_ Max-Zeit 13:34 05:04 21:32 19:33 - 15:39
Maximum _ 6,1 C 100 % 1032 hPa 3,0 l/m - 49,4 km/h
S (6 Bft)
Durchschnitt _ -0,7 C 91 % 1020 hPa #17,0 l/m S 6,6 km/h (2 Bft)

Durchschnitt Minimum Temp.-1,0 C
Durchschnitt Maximum Temp.-0,5 C